Flag for Gabon

Past Weather in Libreville, Gabon — Yesterday and Last 2 Weeks

Now
77 °F

Passing clouds.


Feels Like: 78 °F
Forecast: 82 / 76 °F
Wind: 7 mph from South

Location: Libreville Airport

Current Time: Jul 3, 2020 at 12:00:24 am

Latest Report: Jul 2, 2020 at 11:30 pm


Visibility: 6 mi

Pressure: 29.89 "Hg

Humidity: 89%

Dew Point: 73 °F

Location of LibrevilleLocation

Past Weather in Libreville — Graph

°F

Libreville Temperature Yesterday

Maximum temperature yesterday: 82 °F (at 1:30 pm)
Minimum temperature yesterday: 75 °F (at 7:00 am)
Average temperature yesterday: 79 °F

High & Low Weather Summary for the Past Weeks

 TemperatureHumidityPressure
High84 °F (Jun 20, 12:30 pm)94% (Jun 18, 4:00 am)30.01 "Hg (Jun 18, 4:00 am)
Low73 °F (Jun 18, 7:00 am)66% (Jun 21, 1:00 pm)29.80 "Hg (Jun 23, 3:00 pm)
Average78 °F83%29.91 "Hg
* Reported Jun 17 11:00 pm — Jul 2 11:00 pm, Libreville. Weather by CustomWeather, © 2020

Note: Actual official high and low records may vary slightly from our data, if they occured in-between our weather recording intervals... More about our weather records

Libreville Weather History for the Previous 24 Hours

Scroll right to see more
 ConditionsComfort  
Time TempWeatherWind HumidityBarometerVisibility
11:00 pm
Thu, Jul 2
79 °FPassing clouds.7 mph84%29.89 "Hg6 mi
10:30 pm79 °FPassing clouds.8 mph84%29.89 "Hg6 mi
10:00 pm79 °FPassing clouds.9 mph84%29.89 "Hg6 mi
9:30 pm79 °FPassing clouds.9 mph89%29.89 "Hg6 mi
9:00 pm79 °FPassing clouds.7 mph84%29.86 "Hg6 mi
8:30 pm79 °FPassing clouds.7 mph84%29.86 "Hg6 mi
8:00 pm79 °FPassing clouds.7 mph84%29.86 "Hg6 mi
7:00 pm79 °FPassing clouds.6 mph84%29.83 "HgN/A
6:30 pm79 °FPassing clouds.6 mph84%29.83 "HgN/A
6:00 pm79 °FPassing clouds.5 mph84%29.83 "HgN/A
5:30 pm81 °FPassing clouds.7 mph79%29.83 "HgN/A
5:00 pm81 °FPassing clouds.7 mph79%29.83 "HgN/A
4:30 pm81 °FPassing clouds.7 mph79%29.83 "HgN/A
4:00 pm81 °FPassing clouds.7 mph79%29.83 "HgN/A
3:30 pm81 °FPassing clouds.8 mph79%29.83 "HgN/A
3:00 pm81 °FScattered clouds.8 mph79%29.83 "HgN/A
2:30 pm81 °FScattered clouds.8 mph79%29.86 "HgN/A
2:00 pm82 °FScattered clouds.7 mph74%29.86 "HgN/A
1:30 pm82 °FScattered clouds.7 mph74%29.86 "HgN/A
1:00 pm81 °FScattered clouds.6 mph79%29.89 "HgN/A
12:30 pm81 °FScattered clouds.7 mph79%29.89 "HgN/A
12:00 pm81 °FPassing clouds.8 mph74%29.89 "HgN/A
11:30 am81 °FPassing clouds.8 mph74%29.92 "HgN/A
11:00 am79 °FPassing clouds.8 mph79%29.92 "HgN/A
10:30 am79 °FPassing clouds.9 mph79%29.92 "HgN/A
10:00 am77 °FPartly sunny.9 mph83%29.95 "HgN/A
9:30 am77 °FPartly sunny.10 mph83%29.95 "HgN/A
9:00 am77 °FPassing clouds.9 mph83%29.95 "HgN/A
8:30 am77 °FPassing clouds.10 mph83%29.92 "HgN/A
8:00 am77 °FPassing clouds.9 mph83%29.92 "HgN/A
7:30 am77 °FScattered clouds.9 mph83%29.92 "HgN/A
7:00 am75 °FBroken clouds.9 mph89%29.92 "HgN/A
6:30 am77 °FScattered clouds.9 mph83%29.92 "HgN/A
6:00 am77 °FPassing clouds.7 mph83%29.89 "HgN/A
5:30 am77 °FPassing clouds.7 mph89%29.89 "HgN/A
5:00 am77 °FPassing clouds.7 mph83%29.89 "HgN/A
4:30 am77 °FPassing clouds.7 mph83%29.89 "HgN/A
4:00 am77 °FPassing clouds.7 mph83%29.89 "HgN/A
3:00 am77 °FPartly cloudy.8 mph83%29.89 "HgN/A
2:00 am77 °FPartly cloudy.9 mph83%29.89 "HgN/A
1:00 am77 °FPartly cloudy.5 mph83%29.89 "HgN/A
12:30 am79 °FPassing clouds.7 mph84%29.86 "HgN/A
12:00 am77 °FPassing clouds.7 mph83%29.92 "HgN/A
Weather by CustomWeather, © 2020

See weather overview